Погода в Нагаеве

Россия / Ульяновская область     54°10′52″N   46°43′21″E
темп.,
°C
ветер,
м/с
пор.,
м/с
влажн.,
%
обл.,
%
осадки,
мм/ч
давл.,
гПа
погр.,
м
6 мая, чт
чт601:00+5зюз38865 0.0 1014154
04:00+6юз3108291 0.0 1015251
07:00+8юз4117887 0.0 1016357
10:00+14юз586143 0.0 1016623
13:00+17юз78496 0.0 10161734
16:00+17юз675163 0.0 10161753
19:00+14ююз4863100 0.0 1016268
22:00+11ю3875100 0.0 1016150
7 мая, пт
пт701:00+10ю41269100 0.0 1016304
04:00+8ю41274100 0.0 1016261
07:00+10ю61465100 0.0 1015427
10:00+14ююз71258100 0.0 1015792
13:00+15ююз61059100 0.1 10161224
16:00+15юз5860100 0.4 1015513
19:00+10ссз2489100 1.2 1017250
22:00+9всв1190100 1.4 101828
8 мая, сб
сб801:00+9с119099 0.0 101811
04:00+9св119198 0.0 101822
07:00+10юв129134 0.0 1018132
10:00+14ю4671100 0.0 10171104
13:00+18ююз5854100 0.1 10151998
16:00+20ююз6848100 0.1 10142367
19:00+17ю51059100 0.0 1013354
22:00+15ююв5145786 0.0 1013451
9 мая, вс
вс901:00+13ююв51570100 0.0 1012378
04:00+14ю61361100 0.0 1012570
07:00+13ююв61368100 0.1 1011473
10:00+15ююв71363100 0.1 1010840
13:00+13ююв41190100 1.0 1011440
16:00+19ю61162100 1.6 10111768
19:00+13зсз5686100 1.2 1012231
22:00+8с5995100 1.6 1015289
10 мая, пн
пн1001:00+8ссз4897100 0.2 1015356
04:00+8ссв61197100 1.3 1015316
07:00+10св5995100 0.1 1016305
10:00+13ссв5784100 0.1 1018572
13:00+18св5664100 0.0 10181086
16:00+19св4664100 0.1 10191076
19:00+13с81290100 1.1 1021390
22:00+11ссв51193100 1.1 1023341